WUK8PY EGKK-LKPR

Flight info

Callsign WUK8PY
Flight time N/A
Altitude 35000
Route MIMFO Y312 DVR UL9 KONAN UL607 KOK DCT REMBA DCT MATUG DCT GUBAX DCT KOMIB DCT TONSU Z35 ODOMO DCT LOMKI
Aircraft A21N/M-SDE2E3FGHIRWXY/LB1

Departure

Time 2026-04-18 10:46
Airport London Gatwick Airport (EGKK)

Arrival

Time N/A
Airport Václav Havel Airport Prague (LKPR)
Time Latitude Longitude Altitude Speed Heading
2026-04-18 10:09 51.15516 -0.16723 205 ft 0 kts 347°
2026-04-18 10:37 51.15513 -0.16722 205 ft 3 kts 347°
2026-04-18 10:38 51.15489 -0.16714 214 ft 4 kts 347°
2026-04-18 10:38 51.15480 -0.16711 205 ft 4 kts 346°
2026-04-18 10:38 51.15457 -0.16698 210 ft 4 kts 302°
2026-04-18 10:38 51.15450 -0.16662 215 ft 4 kts 259°
2026-04-18 10:39 51.15454 -0.16630 209 ft 3 kts 257°
2026-04-18 10:39 51.15455 -0.16623 209 ft 0 kts 257°
2026-04-18 10:41 51.15449 -0.16670 216 ft 8 kts 258°
2026-04-18 10:41 51.15398 -0.16718 205 ft 11 kts 176°
2026-04-18 10:41 51.15313 -0.16679 209 ft 14 kts 168°
2026-04-18 10:42 51.15245 -0.16656 205 ft 5 kts 167°
2026-04-18 10:42 51.15243 -0.16655 211 ft 0 kts 167°
2026-04-18 10:44 51.15212 -0.16644 216 ft 12 kts 167°
2026-04-18 10:44 51.15137 -0.16701 209 ft 14 kts 256°
2026-04-18 10:44 51.15127 -0.16774 216 ft 0 kts 256°
2026-04-18 10:45 51.15105 -0.16932 209 ft 50 kts 257°
2026-04-18 10:46 51.14972 -0.17895 218 ft 124 kts 257°
2026-04-18 10:46 51.14750 -0.19502 375 ft 164 kts 261°
2026-04-18 10:46 51.14509 -0.21274 1295 ft 164 kts 256°
2026-04-18 10:46 51.14279 -0.23053 2224 ft 165 kts 256°
2026-04-18 10:47 51.14029 -0.24942 2805 ft 183 kts 257°
2026-04-18 10:47 51.13753 -0.27018 3385 ft 201 kts 256°
2026-04-18 10:47 51.13766 -0.29321 3925 ft 218 kts 284°
2026-04-18 10:47 51.14583 -0.31395 4017 ft 228 kts 317°
2026-04-18 10:48 51.15962 -0.32441 4012 ft 237 kts 348°
2026-04-18 10:48 51.17619 -0.32147 4000 ft 246 kts 22°
2026-04-18 10:48 51.18969 -0.30480 3993 ft 249 kts 56°
2026-04-18 10:48 51.19646 -0.28033 3973 ft 251 kts 79°
2026-04-18 10:49 51.19949 -0.25286 4346 ft 253 kts 85°
2026-04-18 10:49 51.20177 -0.22521 5349 ft 250 kts 84°
2026-04-18 10:49 51.20432 -0.19746 6264 ft 259 kts 82°
2026-04-18 10:49 51.20760 -0.16803 6808 ft 280 kts 79°
2026-04-18 10:50 51.21158 -0.13667 7480 ft 292 kts 79°
2026-04-18 10:50 51.21582 -0.10505 8364 ft 298 kts 78°
2026-04-18 10:50 51.22024 -0.07241 9238 ft 304 kts 79°
2026-04-18 10:50 51.22471 -0.03906 10128 ft 310 kts 79°
2026-04-18 10:51 51.22922 -0.00508 10932 ft 315 kts 79°
2026-04-18 10:51 51.23262 0.02065 11474 ft 324 kts 79°
2026-04-18 10:51 51.23736 0.05706 11766 ft 348 kts 79°
2026-04-18 10:51 51.24243 0.09624 12094 ft 368 kts 79°
2026-04-18 10:52 51.24767 0.13664 12815 ft 374 kts 80°
2026-04-18 10:52 51.25240 0.17773 13582 ft 378 kts 85°
2026-04-18 10:52 51.25342 0.21916 14283 ft 380 kts 96°
2026-04-18 10:52 51.25066 0.26106 14735 ft 382 kts 101°
2026-04-18 10:53 51.24727 0.30327 15408 ft 385 kts 100°
2026-04-18 10:53 51.24409 0.34443 16067 ft 389 kts 100°
2026-04-18 10:53 51.24079 0.38759 16749 ft 393 kts 100°
2026-04-18 10:53 51.23749 0.43083 17408 ft 397 kts 100°
2026-04-18 10:54 51.23410 0.47500 18075 ft 401 kts 100°
2026-04-18 10:54 51.23067 0.51954 18645 ft 406 kts 100°
2026-04-18 10:54 51.22719 0.56446 19245 ft 408 kts 100°
2026-04-18 10:54 51.22369 0.60941 19818 ft 412 kts 100°
2026-04-18 10:55 51.22012 0.65503 20399 ft 416 kts 100°
2026-04-18 10:55 51.21648 0.70124 20981 ft 419 kts 100°
2026-04-18 10:55 51.21292 0.74629 21534 ft 423 kts 100°
2026-04-18 10:55 51.20924 0.79242 22101 ft 426 kts 101°
2026-04-18 10:56 51.20547 0.83946 22767 ft 430 kts 101°
2026-04-18 10:56 51.20166 0.88703 23300 ft 434 kts 101°
2026-04-18 10:56 51.19780 0.93486 23819 ft 437 kts 101°
2026-04-18 10:56 51.19390 0.98292 24268 ft 440 kts 101°
2026-04-18 10:57 51.18991 1.03166 24692 ft 443 kts 101°
2026-04-18 10:57 51.18589 1.08058 25107 ft 447 kts 101°
2026-04-18 10:57 51.18180 1.13007 25519 ft 450 kts 101°
2026-04-18 10:57 51.17773 1.17916 25922 ft 453 kts 101°
2026-04-18 10:58 51.17356 1.22913 26303 ft 456 kts 100°
2026-04-18 10:58 51.16935 1.27933 26687 ft 459 kts 100°
2026-04-18 10:58 51.16509 1.32988 27058 ft 462 kts 100°
2026-04-18 10:58 51.16086 1.38080 27417 ft 466 kts 99°
2026-04-18 10:59 51.15808 1.42986 27735 ft 469 kts 96°
2026-04-18 10:59 51.15593 1.48180 28097 ft 472 kts 96°
2026-04-18 10:59 51.15380 1.53444 28427 ft 475 kts 96°
2026-04-18 10:59 51.15152 1.58708 28756 ft 477 kts 96°
2026-04-18 11:00 51.14905 1.64012 29078 ft 479 kts 96°
2026-04-18 11:00 51.14647 1.69305 29390 ft 482 kts 96°
2026-04-18 11:00 51.14389 1.74457 29669 ft 484 kts 96°
2026-04-18 11:00 51.14122 1.79733 29957 ft 487 kts 96°
2026-04-18 11:01 51.13847 1.85125 30264 ft 489 kts 96°
2026-04-18 11:01 51.13569 1.90512 30528 ft 491 kts 96°
2026-04-18 11:01 51.13287 1.95929 30801 ft 492 kts 96°
2026-04-18 11:02 51.12710 2.06863 31363 ft 495 kts 96°
2026-04-18 11:02 51.12418 2.12336 31723 ft 495 kts 96°
2026-04-18 11:02 51.12126 2.17762 32091 ft 494 kts 96°
2026-04-18 11:02 51.11829 2.23233 32452 ft 493 kts 96°
2026-04-18 11:03 51.11531 2.28662 32795 ft 492 kts 96°
2026-04-18 11:03 51.11231 2.34103 33137 ft 491 kts 95°
2026-04-18 11:03 51.10936 2.39520 33472 ft 491 kts 96°
2026-04-18 11:03 51.10555 2.46218 33868 ft 490 kts 96°
2026-04-18 11:04 51.09945 2.57025 34258 ft 493 kts 96°
2026-04-18 11:04 51.08903 2.67501 34927 ft 487 kts 103°
2026-04-18 11:04 51.05712 2.85832 35082 ft 501 kts 107°
2026-04-18 11:05 51.03778 2.96507 35239 ft 501 kts 107°
2026-04-18 11:05 51.01836 3.07130 35244 ft 500 kts 107°
2026-04-18 11:05 50.97912 3.28333 35218 ft 500 kts 107°
2026-04-18 11:06 50.93948 3.49519 35219 ft 500 kts 107°
2026-04-18 11:06 50.90084 3.69955 35219 ft 501 kts 107°
2026-04-18 11:07 50.86072 3.90929 35229 ft 500 kts 108°
2026-04-18 11:07 50.82015 4.11812 35279 ft 495 kts 107°
2026-04-18 11:08 50.77929 4.32758 35241 ft 499 kts 108°
2026-04-18 11:08 50.75218 4.46496 35209 ft 499 kts 107°
2026-04-18 11:09 50.73184 4.56756 35207 ft 499 kts 108°
2026-04-18 11:09 50.69059 4.77345 35205 ft 498 kts 107°
2026-04-18 11:10 50.65009 4.98022 35197 ft 498 kts 104°
2026-04-18 11:10 50.61764 5.18758 35211 ft 497 kts 104°
2026-04-18 11:11 50.60031 5.29308 35213 ft 498 kts 104°
2026-04-18 11:11 50.58284 5.39830 35208 ft 498 kts 104°
2026-04-18 11:12 50.56821 5.48604 35211 ft 498 kts 104°
2026-04-18 11:12 50.55054 5.59139 35207 ft 498 kts 105°
2026-04-18 11:13 50.51929 5.77602 35206 ft 498 kts 105°
2026-04-18 11:13 50.48328 5.98676 35175 ft 497 kts 105°
2026-04-18 11:14 50.44711 6.19607 35172 ft 494 kts 105°
2026-04-18 11:14 50.41424 6.40605 35148 ft 496 kts 97°
2026-04-18 11:15 50.39799 6.61699 35154 ft 496 kts 96°
2026-04-18 11:15 50.38116 6.82720 35119 ft 494 kts 96°
2026-04-18 11:16 50.36323 7.04119 35181 ft 495 kts 96°
2026-04-18 11:16 50.35001 7.20912 35187 ft 495 kts 97°
2026-04-18 11:17 50.34137 7.31557 35186 ft 496 kts 97°
2026-04-18 11:17 50.33260 7.42090 35184 ft 495 kts 97°
2026-04-18 11:18 50.32359 7.52759 35181 ft 495 kts 97°
2026-04-18 11:18 50.31460 7.63262 35179 ft 495 kts 97°
2026-04-18 11:19 50.30537 7.73932 35179 ft 495 kts 97°
2026-04-18 11:19 50.29451 7.86307 35177 ft 494 kts 97°
2026-04-18 11:20 50.27935 8.04061 35172 ft 494 kts 96°
2026-04-18 11:20 50.27056 8.14693 35167 ft 493 kts 96°
2026-04-18 11:21 50.25767 8.29845 35163 ft 493 kts 97°
2026-04-18 11:21 50.24493 8.44787 35175 ft 493 kts 96°
2026-04-18 11:22 50.23039 8.61031 35170 ft 493 kts 97°
2026-04-18 11:22 50.22090 8.71641 35163 ft 492 kts 97°
2026-04-18 11:23 50.20754 8.86418 35166 ft 492 kts 97°
2026-04-18 11:23 50.18800 9.07476 35169 ft 491 kts 97°
2026-04-18 11:24 50.16851 9.28615 35157 ft 491 kts 99°
2026-04-18 11:24 50.14821 9.49583 35164 ft 490 kts 99°
2026-04-18 11:25 50.12783 9.70395 35161 ft 489 kts 99°
2026-04-18 11:25 50.10696 9.91352 35159 ft 489 kts 99°
2026-04-18 11:26 50.08622 10.11973 35141 ft 489 kts 99°
2026-04-18 11:26 50.06499 10.32589 35160 ft 488 kts 99°
2026-04-18 11:27 50.04679 10.50749 35258 ft 485 kts 97°
2026-04-18 11:27 50.04188 10.55922 35153 ft 488 kts 98°
2026-04-18 11:27 50.03657 10.61176 35160 ft 489 kts 98°
2026-04-18 11:28 50.02550 10.71600 35160 ft 489 kts 99°
2026-04-18 11:28 50.01424 10.81998 35161 ft 489 kts 99°
2026-04-18 11:29 50.00290 10.92440 35165 ft 488 kts 99°
2026-04-18 11:29 49.99184 11.02590 35166 ft 489 kts 99°
2026-04-18 11:30 49.98616 11.07784 35042 ft 489 kts 99°
2026-04-18 11:30 49.98040 11.13037 34912 ft 480 kts 99°
2026-04-18 11:30 49.97484 11.18100 34568 ft 473 kts 99°
2026-04-18 11:30 49.97034 11.23110 34003 ft 469 kts 95°
2026-04-18 11:31 49.96805 11.28164 33346 ft 466 kts 92°
2026-04-18 11:31 49.96663 11.33147 32728 ft 461 kts 92°
2026-04-18 11:31 49.96511 11.38056 32122 ft 458 kts 92°
2026-04-18 11:31 49.96353 11.42973 31526 ft 454 kts 92°
2026-04-18 11:32 49.96193 11.47837 30927 ft 450 kts 93°
2026-04-18 11:32 49.96032 11.52695 30352 ft 447 kts 93°
2026-04-18 11:32 49.95873 11.57464 29539 ft 441 kts 93°
2026-04-18 11:32 49.95713 11.62188 28730 ft 434 kts 92°
2026-04-18 11:33 49.95554 11.66792 27948 ft 428 kts 92°
2026-04-18 11:33 49.95393 11.71406 27138 ft 424 kts 92°
2026-04-18 11:33 49.95233 11.75940 26546 ft 416 kts 92°
2026-04-18 11:33 49.95075 11.80394 26251 ft 414 kts 92°
2026-04-18 11:34 49.94916 11.84861 25893 ft 419 kts 92°
2026-04-18 11:34 49.94754 11.89391 25485 ft 415 kts 92°
2026-04-18 11:34 49.94590 11.93823 25098 ft 408 kts 92°
2026-04-18 11:34 49.94467 11.98150 24605 ft 404 kts 91°
2026-04-18 11:35 49.94385 12.02505 24092 ft 401 kts 90°
2026-04-18 11:35 49.94313 12.06761 23485 ft 400 kts 91°
2026-04-18 11:35 49.94234 12.11042 23110 ft 392 kts 91°
2026-04-18 11:35 49.94150 12.15330 22671 ft 391 kts 91°
2026-04-18 11:36 49.94063 12.19481 22239 ft 390 kts 91°
2026-04-18 11:36 49.93973 12.23666 21796 ft 386 kts 91°
2026-04-18 11:36 49.93883 12.27691 21375 ft 381 kts 91°
2026-04-18 11:36 49.93790 12.31820 20934 ft 381 kts 91°
2026-04-18 11:37 49.93695 12.35902 20494 ft 377 kts 91°
2026-04-18 11:37 49.93588 12.39949 20059 ft 373 kts 92°
2026-04-18 11:37 49.93474 12.43951 19630 ft 372 kts 92°
2026-04-18 11:37 49.93358 12.47970 19202 ft 369 kts 92°
2026-04-18 11:38 49.93243 12.51917 18773 ft 366 kts 92°
2026-04-18 11:38 49.93128 12.55870 18332 ft 364 kts 92°
2026-04-18 11:38 49.93014 12.59736 17900 ft 360 kts 92°
2026-04-18 11:38 49.92898 12.63635 17478 ft 360 kts 92°
2026-04-18 11:39 49.92783 12.67493 17062 ft 357 kts 92°
2026-04-18 11:39 49.92670 12.71205 16663 ft 355 kts 92°
2026-04-18 11:39 49.92555 12.74979 16253 ft 353 kts 92°
2026-04-18 11:39 49.92436 12.78825 15838 ft 350 kts 92°
2026-04-18 11:40 49.92318 12.82593 15427 ft 349 kts 92°
2026-04-18 11:40 49.92199 12.86338 15010 ft 346 kts 92°
2026-04-18 11:40 49.92080 12.90072 14615 ft 345 kts 92°
2026-04-18 11:40 49.91961 12.93738 14221 ft 342 kts 92°
2026-04-18 11:41 49.91841 12.97412 13803 ft 342 kts 92°
2026-04-18 11:41 49.91720 13.01073 13399 ft 337 kts 92°
2026-04-18 11:41 49.91602 13.04608 13027 ft 337 kts 92°
2026-04-18 11:41 49.91481 13.08222 12635 ft 334 kts 92°
2026-04-18 11:42 49.91359 13.11805 12252 ft 330 kts 92°
2026-04-18 11:42 49.91238 13.15361 11875 ft 330 kts 92°
2026-04-18 11:42 49.91116 13.18891 11493 ft 326 kts 92°
2026-04-18 11:42 49.90993 13.22405 11114 ft 325 kts 92°
2026-04-18 11:43 49.90870 13.25891 10740 ft 322 kts 92°
2026-04-18 11:43 49.90749 13.29295 10545 ft 308 kts 92°
2026-04-18 11:43 49.90633 13.32532 10330 ft 295 kts 92°
2026-04-18 11:43 49.90518 13.35725 10102 ft 297 kts 92°
2026-04-18 11:44 49.90402 13.38913 9971 ft 295 kts 92°
2026-04-18 11:44 49.90287 13.42089 9845 ft 295 kts 92°
2026-04-18 11:44 49.90172 13.45229 9615 ft 296 kts 92°
2026-04-18 11:44 49.90054 13.48428 9296 ft 295 kts 92°
2026-04-18 11:45 49.89937 13.51573 8973 ft 291 kts 92°
2026-04-18 11:45 49.89927 13.54688 8632 ft 285 kts 81°
2026-04-18 11:45 49.90406 13.57616 8334 ft 278 kts 66°
2026-04-18 11:45 49.91233 13.60283 8021 ft 272 kts 62°
2026-04-18 11:46 49.92052 13.62908 7713 ft 268 kts 63°
2026-04-18 11:46 49.92849 13.65496 7422 ft 263 kts 63°
2026-04-18 11:46 49.93628 13.68038 7193 ft 256 kts 63°
2026-04-18 11:46 49.94469 13.70391 7009 ft 245 kts 57°
2026-04-18 11:47 49.95327 13.72682 6678 ft 244 kts 60°
2026-04-18 11:47 49.96063 13.74997 6315 ft 243 kts 64°
2026-04-18 11:47 49.96766 13.77406 6066 ft 240 kts 64°
2026-04-18 11:47 49.97441 13.79706 5963 ft 226 kts 64°
2026-04-18 11:48 49.98066 13.81827 5893 ft 206 kts 64°
2026-04-18 11:48 49.98645 13.83789 5609 ft 197 kts 63°
2026-04-18 11:48 49.99219 13.85722 5170 ft 197 kts 63°
2026-04-18 11:48 49.99792 13.87657 4746 ft 196 kts 63°
2026-04-18 11:49 50.00362 13.89578 4343 ft 195 kts 64°
2026-04-18 11:49 50.00918 13.91474 4042 ft 189 kts 64°
2026-04-18 11:49 50.01477 13.93355 4001 ft 196 kts 64°
2026-04-18 11:49 50.02021 13.95198 3992 ft 178 kts 64°
2026-04-18 11:50 50.02510 13.96838 3992 ft 169 kts 64°
2026-04-18 11:50 50.03008 13.98524 4005 ft 173 kts 64°